Home   Weather   Peterborough   Past weeks

Flag for Canada Past Weather in Peterborough, Ontario, Canada — Yesterday and Last 2 Weeks

32 °F

Light snow. Mostly cloudy.

Feels Like: 22 °F
Forecast: 29 / 34 °F
Wind: 15 mph from East

Location: Peterborough Airport

Current Time: Oct 27, 2016 at 2:53:22 PM

Latest Report: Oct 27, 2016 at 2:00 PM

Visibility: 3 mi

Pressure: 30.06 "Hg

Humidity: 93%

Dew Point: 30 °F

Location of PeterboroughLocation

Past Weather in Peterborough — Graph


Peterborough Temperature Yesterday

Maximum temperature yesterday: 41 °F (at 1:00 PM)
Minimum temperature yesterday: 25 °F (at 8:00 AM)
Average temperature yesterday: 36 °F

High & Low Weather Summary for the Past Weeks

High75 °F (Oct 18, 3:00 PM)100% (Oct 13, 11:00 PM)30.53 "Hg (Oct 13, 11:00 PM)
Low25 °F (Oct 26, 8:00 AM)40% (Oct 15, 2:00 PM)29.54 "Hg (Oct 18, 2:00 PM)
Average48 °F80%30.03 "Hg
* Reported Oct 12 1:00 PM — Oct 27 1:00 PM, Peterborough, Weather by CustomWeather, © 2016

Note: Actual official high and low records may vary slightly from our data, if they occured in-between our weather recording intervals... More about our weather records


Peterborough Weather History for the Previous 24 Hours

Scroll right to see more
Time TempWeatherWind HumidityBarometerVisibility
1:00 PM
Thu, Oct 27
32 °FLight snow. Mostly cloudy.14 mph93%30.09 "Hg2 mi
12:00 PM32 °FLight snow. Low clouds.14 mph93%30.12 "Hg4 mi
11:59 AM32 °FLight snow. Low clouds.14 mph93%30.13 "Hg4 mi
11:01 AM32 °FLight rain. Overcast.13 mph93%30.15 "Hg4 mi
10:59 AM32 °FLight rain. Overcast.12 mph93%30.15 "Hg7 mi
10:01 AM32 °FLight rain. Mostly cloudy.10 mph87%30.20 "Hg9 mi
9:56 AM32 °FMostly cloudy.10 mph87%30.21 "Hg9 mi
9:00 AM34 °FLight snow. Mostly cloudy.12 mph75%30.22 "Hg9 mi
8:48 AM34 °FLight snow. Overcast.13 mph70%30.22 "Hg8 mi
8:00 AM34 °FLight rain. Overcast.13 mph70%30.25 "Hg9 mi
7:59 AM34 °FLight rain. Overcast.12 mph70%30.25 "Hg9 mi
7:00 AM34 °FMostly cloudy.12 mph65%30.27 "Hg9 mi
6:00 AM32 °FMostly cloudy.10 mph69%30.30 "Hg9 mi
5:00 AM34 °FMostly cloudy.8 mph65%30.34 "Hg9 mi
4:00 AM32 °FOvercast.8 mph69%30.35 "Hg9 mi
3:00 AM34 °FOvercast.6 mph65%30.40 "Hg9 mi
2:00 AM34 °FMostly cloudy.9 mph60%30.41 "Hg9 mi
1:00 AM34 °FOvercast.8 mph65%30.44 "Hg9 mi
12:00 AM34 °FOvercast.7 mph65%30.44 "Hg9 mi
11:00 PM
Wed, Oct 26
34 °FOvercast.5 mph65%30.45 "Hg9 mi
10:00 PM34 °FOvercast.3 mph65%30.45 "Hg9 mi
9:00 PM36 °FOvercast.3 mph60%30.47 "Hg9 mi
8:00 PM36 °FOvercast.2 mph60%30.47 "Hg9 mi
7:00 PM36 °FOvercast.3 mph56%30.47 "Hg9 mi
6:00 PM37 °FPartly sunny.5 mph56%30.46 "Hg9 mi
5:00 PM39 °FOvercast.2 mph48%30.45 "Hg9 mi
4:00 PM39 °FPassing clouds.No wind52%30.46 "Hg9 mi
3:00 PM39 °FSunny.2 mph48%30.47 "Hg9 mi
2:00 PM41 °FSunny.5 mph45%30.49 "Hg9 mi
Weather by CustomWeather, © 2016

See weather overviewHow to use our weather pages